軌道要素
Epoch 2013 Aug. 16.0 TT = JDT 2456520.5
T 2013 Aug. 27.87520 TT Rudenko
q 2.1218407 (2000.0) P Q
n 0.15363776 Peri. 92.11798 -0.98895573 -0.12190673
a 3.4525296 Node 80.88755 +0.07725969 -0.90937947
e 0.3854243 Incl. 4.89733 +0.12648125 -0.39770308
P 6.42
From 678 observations 2013 May 5-2020 June 12, mean residual 0".6.
|